Time,TemperatureF,DewpointF,PressureIn,WindDirection,WindDirectionDegrees,WindSpeedMPH,WindSpeedGustMPH,Humidity,HourlyPrecipIn,Conditions,Clouds,dailyrainin,SoftwareType,DateUTC
2013-04-28 00:01:00,59.1,54.9,30.00,ENE,73,1.0,1.0,86,0.00,,---,0.00,VWS V14.01,2013-04-28 05:01:00,
2013-04-28 00:06:00,59.0,54.8,30.00,East,101,1.0,3.0,86,0.00,,---,0.00,VWS V14.01,2013-04-28 05:06:00,
2013-04-28 00:11:00,59.0,54.8,30.00,East,98,0.0,3.0,86,0.00,,---,0.00,VWS V14.01,2013-04-28 05:11:00,
2013-04-28 00:16:00,58.8,54.6,30.00,ENE,66,2.0,3.0,86,0.00,,---,0.00,VWS V14.01,2013-04-28 05:16:00,
2013-04-28 00:21:00,58.7,54.8,30.00,NE,51,2.0,3.0,87,0.00,,---,0.00,VWS V14.01,2013-04-28 05:21:00,
2013-04-28 00:26:00,58.6,54.8,30.00,East,80,2.0,3.0,87,0.00,,---,0.00,VWS V14.01,2013-04-28 05:26:00,
2013-04-28 00:31:00,58.5,55.0,30.01,NNE,30,1.0,1.0,88,0.00,,---,0.00,VWS V14.01,2013-04-28 05:31:00,
2013-04-28 00:36:00,58.3,54.5,30.01,NNE,19,1.0,2.0,87,0.00,,---,0.00,VWS V14.01,2013-04-28 05:36:00,
2013-04-28 00:41:00,58.1,54.6,30.01,NNE,32,1.0,2.0,88,0.00,,---,0.00,VWS V14.01,2013-04-28 05:41:00,
2013-04-28 00:46:00,58.0,54.5,30.02,NNE,18,1.0,2.0,88,0.00,,---,0.00,VWS V14.01,2013-04-28 05:46:00,
2013-04-28 00:51:00,58.0,54.8,30.02,NE,39,0.0,2.0,89,0.00,,---,0.00,VWS V14.01,2013-04-28 05:51:00,
2013-04-28 00:56:00,58.1,54.9,30.02,NE,42,0.0,2.0,89,0.00,,---,0.00,VWS V14.01,2013-04-28 05:56:00,
2013-04-28 01:01:00,58.0,54.8,30.03,SSE,155,4.0,4.0,89,0.00,,---,0.00,VWS V14.01,2013-04-28 06:01:00,
2013-04-28 01:06:00,58.2,55.0,30.04,SSE,163,5.0,8.0,89,0.00,,---,0.00,VWS V14.01,2013-04-28 06:06:00,
2013-04-28 01:11:00,58.3,55.1,30.03,ESE,102,2.0,8.0,89,0.00,,---,0.00,VWS V14.01,2013-04-28 06:11:00,
2013-04-28 01:16:00,58.3,55.1,30.04,East,80,2.0,8.0,89,0.00,,---,0.00,VWS V14.01,2013-04-28 06:16:00,
2013-04-28 01:21:00,58.4,54.9,30.04,ESE,114,5.0,8.0,88,0.00,,---,0.00,VWS V14.01,2013-04-28 06:21:00,
2013-04-28 01:26:00,58.4,54.9,30.03,East,83,0.0,8.0,88,0.00,,---,0.00,VWS V14.01,2013-04-28 06:26:00,
2013-04-28 01:31:00,58.2,54.4,30.02,East,82,0.0,0.0,87,0.00,,---,0.00,VWS V14.01,2013-04-28 06:31:00,
2013-04-28 01:36:00,58.1,54.6,30.02,East,86,0.0,1.0,88,0.00,,---,0.00,VWS V14.01,2013-04-28 06:36:00,
2013-04-28 01:41:00,57.8,54.3,30.01,NNW,340,1.0,3.0,88,0.00,,---,0.00,VWS V14.01,2013-04-28 06:41:00,
2013-04-28 01:46:00,57.2,54.0,30.01,NNW,340,0.0,3.0,89,0.00,,---,0.00,VWS V14.01,2013-04-28 06:46:00,
2013-04-28 01:51:00,57.1,54.2,30.01,ESE,120,3.0,3.0,90,0.00,,---,0.00,VWS V14.01,2013-04-28 06:51:00,
2013-04-28 01:56:00,57.4,54.5,30.00,North,3,1.0,4.0,90,0.00,,---,0.00,VWS V14.01,2013-04-28 06:56:00,
2013-04-28 02:01:00,57.3,54.1,30.01,North,349,0.0,0.0,89,0.00,,---,0.00,VWS V14.01,2013-04-28 07:01:00,
2013-04-28 02:06:00,57.0,54.1,30.01,North,349,1.0,1.0,90,0.00,,---,0.00,VWS V14.01,2013-04-28 07:06:00,
2013-04-28 02:11:00,56.7,53.8,30.01,NNW,347,0.0,1.0,90,0.00,,---,0.00,VWS V14.01,2013-04-28 07:11:00,
2013-04-28 02:16:00,56.5,53.9,30.00,NNW,347,0.0,1.0,91,0.00,,---,0.00,VWS V14.01,2013-04-28 07:16:00,
2013-04-28 02:21:00,56.1,53.5,29.99,NNW,347,0.0,1.0,91,0.00,,---,0.00,VWS V14.01,2013-04-28 07:21:00,
2013-04-28 02:26:00,55.8,53.2,29.99,NNW,347,0.0,1.0,91,0.00,,---,0.00,VWS V14.01,2013-04-28 07:26:00,
2013-04-28 02:31:00,55.6,53.3,29.99,NNW,347,0.0,0.0,92,0.00,,---,0.00,VWS V14.01,2013-04-28 07:31:00,
2013-04-28 02:36:00,55.7,53.7,29.99,East,98,0.0,1.0,93,0.00,,---,0.00,VWS V14.01,2013-04-28 07:36:00,
2013-04-28 02:41:00,55.7,53.7,29.99,NNW,333,1.0,2.0,93,0.00,,---,0.00,VWS V14.01,2013-04-28 07:41:00,
2013-04-28 02:46:00,55.5,53.5,29.99,NNW,333,1.0,2.0,93,0.00,,---,0.00,VWS V14.01,2013-04-28 07:46:00,
2013-04-28 02:51:00,55.3,53.3,29.99,NNW,332,0.0,2.0,93,0.00,,---,0.00,VWS V14.01,2013-04-28 07:51:00,
2013-04-28 02:56:00,55.2,53.2,29.98,NNW,331,0.0,2.0,93,0.00,,---,0.00,VWS V14.01,2013-04-28 07:56:00,
2013-04-28 03:01:00,55.0,53.0,29.98,NNW,331,0.0,0.0,93,0.00,,---,0.00,VWS V14.01,2013-04-28 08:01:00,
2013-04-28 03:06:00,54.9,53.2,29.98,NNW,331,1.0,2.0,94,0.00,,---,0.00,VWS V14.01,2013-04-28 08:06:00,
2013-04-28 03:11:00,54.9,53.2,29.97,NNW,332,0.0,2.0,94,0.00,,---,0.00,VWS V14.01,2013-04-28 08:11:00,
2013-04-28 03:16:00,55.0,53.3,29.98,NNW,332,0.0,2.0,94,0.00,,---,0.00,VWS V14.01,2013-04-28 08:16:00,
2013-04-28 03:21:00,55.0,53.3,29.98,NNW,332,0.0,2.0,94,0.00,,---,0.00,VWS V14.01,2013-04-28 08:21:00,
2013-04-28 03:26:00,54.9,53.2,29.98,NNW,332,0.0,2.0,94,0.00,,---,0.00,VWS V14.01,2013-04-28 08:26:00,
2013-04-28 03:31:00,54.8,53.1,29.97,NNW,332,0.0,0.0,94,0.00,,---,0.00,VWS V14.01,2013-04-28 08:31:00,
2013-04-28 03:36:00,54.7,53.0,29.98,NNW,331,0.0,0.0,94,0.00,,---,0.00,VWS V14.01,2013-04-28 08:36:00,
2013-04-28 03:41:00,54.5,52.8,29.97,NNW,331,0.0,0.0,94,0.00,,---,0.00,VWS V14.01,2013-04-28 08:41:00,
2013-04-28 03:46:00,54.3,52.6,29.97,NNW,331,0.0,1.0,94,0.00,,---,0.00,VWS V14.01,2013-04-28 08:46:00,
2013-04-28 03:51:00,54.1,52.4,29.97,NNW,331,0.0,1.0,94,0.00,,---,0.00,VWS V14.01,2013-04-28 08:51:00,
2013-04-28 03:56:00,53.9,52.2,29.97,NNW,331,0.0,1.0,94,0.00,,---,0.00,VWS V14.01,2013-04-28 08:56:00,
2013-04-28 04:00:00,53.7,52.3,29.96,NNW,331,0.0,1.0,95,0.00,,---,0.00,VWS V14.01,2013-04-28 09:00:00,
2013-04-28 04:05:00,53.7,52.3,29.97,NNW,331,0.0,1.0,95,0.00,,---,0.00,VWS V14.01,2013-04-28 09:05:00,
2013-04-28 04:10:00,53.5,52.1,29.96,NNW,331,0.0,1.0,95,0.00,,---,0.00,VWS V14.01,2013-04-28 09:10:00,
2013-04-28 04:15:00,53.6,52.2,29.96,NNW,328,0.0,1.0,95,0.00,,---,0.00,VWS V14.01,2013-04-28 09:15:00,
2013-04-28 04:20:00,53.6,52.2,29.96,NW,326,0.0,1.0,95,0.00,,---,0.00,VWS V14.01,2013-04-28 09:20:00,
2013-04-28 04:25:00,53.9,52.8,29.96,NW,318,0.0,1.0,96,0.00,,---,0.00,VWS V14.01,2013-04-28 09:25:00,
2013-04-28 04:30:00,53.9,52.5,29.96,NNW,338,1.0,2.0,95,0.00,,---,0.00,VWS V14.01,2013-04-28 09:30:00,
2013-04-28 04:35:00,53.8,52.4,29.96,NNW,338,0.0,1.0,95,0.00,,---,0.00,VWS V14.01,2013-04-28 09:35:00,
2013-04-28 04:40:00,53.7,52.3,29.97,NW,314,0.0,1.0,95,0.00,,---,0.00,VWS V14.01,2013-04-28 09:40:00,
2013-04-28 04:45:00,53.7,52.3,29.97,NW,326,0.0,2.0,95,0.00,,---,0.00,VWS V14.01,2013-04-28 09:45:00,
2013-04-28 04:50:00,53.6,52.2,29.97,NW,315,0.0,2.0,95,0.00,,---,0.00,VWS V14.01,2013-04-28 09:50:00,
2013-04-28 04:55:00,53.5,52.1,29.97,NW,315,0.0,2.0,95,0.00,,---,0.00,VWS V14.01,2013-04-28 09:55:00,
2013-04-28 05:00:00,53.4,52.3,29.97,NW,316,0.0,2.0,96,0.00,,---,0.00,VWS V14.01,2013-04-28 10:00:00,
2013-04-28 05:05:00,53.2,51.8,29.97,SW,225,0.0,0.0,95,0.00,,---,0.00,VWS V14.01,2013-04-28 10:05:00,
2013-04-28 05:10:00,53.1,51.7,29.97,WNW,297,0.0,1.0,95,0.00,,---,0.00,VWS V14.01,2013-04-28 10:10:00,
2013-04-28 05:15:00,52.8,51.4,29.97,WNW,297,0.0,1.0,95,0.00,,---,0.00,VWS V14.01,2013-04-28 10:15:00,
2013-04-28 05:20:00,52.7,51.3,29.96,WNW,297,0.0,1.0,95,0.00,,---,0.00,VWS V14.01,2013-04-28 10:20:00,
2013-04-28 05:25:00,52.6,51.5,29.96,WNW,297,0.0,1.0,96,0.00,,---,0.00,VWS V14.01,2013-04-28 10:25:00,
2013-04-28 05:30:00,52.6,51.5,29.96,WNW,297,0.0,1.0,96,0.00,,---,0.00,VWS V14.01,2013-04-28 10:30:00,
2013-04-28 05:35:00,52.5,51.4,29.96,WNW,297,0.0,0.0,96,0.00,,---,0.00,VWS V14.01,2013-04-28 10:35:00,
2013-04-28 05:40:00,52.5,51.4,29.96,WNW,297,0.0,0.0,96,0.00,,---,0.00,VWS V14.01,2013-04-28 10:40:00,
2013-04-28 05:45:00,52.5,51.4,29.96,WNW,299,0.0,0.0,96,0.00,,---,0.00,VWS V14.01,2013-04-28 10:45:00,
2013-04-28 05:50:00,52.5,51.4,29.96,WNW,299,0.0,1.0,96,0.00,,---,0.00,VWS V14.01,2013-04-28 10:50:00,
2013-04-28 05:55:00,52.4,51.3,29.96,WNW,299,0.0,1.0,96,0.00,,---,0.00,VWS V14.01,2013-04-28 10:55:00,
2013-04-28 06:00:00,52.3,51.2,29.96,NW,318,0.0,2.0,96,0.00,,---,0.00,VWS V14.01,2013-04-28 11:00:00,
2013-04-28 06:05:00,52.2,51.1,29.96,NW,318,0.0,0.0,96,0.00,,---,0.00,VWS V14.01,2013-04-28 11:05:00,
2013-04-28 06:10:00,52.3,51.2,29.96,NW,318,0.0,0.0,96,0.00,,---,0.00,VWS V14.01,2013-04-28 11:10:00,
2013-04-28 06:15:00,52.2,51.1,29.96,NW,317,0.0,1.0,96,0.00,,---,0.00,VWS V14.01,2013-04-28 11:15:00,
2013-04-28 06:20:00,52.2,51.1,29.96,NW,318,0.0,1.0,96,0.00,,---,0.00,VWS V14.01,2013-04-28 11:20:00,
2013-04-28 06:25:00,52.2,51.1,29.97,NW,318,0.0,1.0,96,0.00,,---,0.00,VWS V14.01,2013-04-28 11:25:00,
2013-04-28 06:30:00,52.0,50.9,29.97,NW,317,0.0,1.0,96,0.00,,---,0.00,VWS V14.01,2013-04-28 11:30:00,
2013-04-28 06:35:00,52.0,50.9,29.97,NW,318,1.0,1.0,96,0.00,,---,0.00,VWS V14.01,2013-04-28 11:35:00,
2013-04-28 06:40:00,52.0,50.9,29.98,NW,318,0.0,1.0,96,0.00,,---,0.00,VWS V14.01,2013-04-28 11:40:00,
2013-04-28 06:45:00,52.0,50.9,29.98,NW,318,0.0,1.0,96,0.00,,---,0.00,VWS V14.01,2013-04-28 11:45:00,
2013-04-28 06:50:00,52.0,50.9,29.98,NW,318,0.0,1.0,96,0.00,,---,0.00,VWS V14.01,2013-04-28 11:50:00,
2013-04-28 06:55:00,52.0,50.9,29.98,North,349,0.0,1.0,96,0.00,,---,0.00,VWS V14.01,2013-04-28 11:55:00,
2013-04-28 07:00:00,52.0,50.9,29.98,North,349,0.0,1.0,96,0.00,,---,0.00,VWS V14.01,2013-04-28 12:00:00,
2013-04-28 07:05:00,52.0,50.9,29.99,NNW,341,0.0,1.0,96,0.00,,---,0.00,VWS V14.01,2013-04-28 12:05:00,
2013-04-28 07:10:00,52.2,51.1,29.99,NNW,341,0.0,1.0,96,0.00,,---,0.00,VWS V14.01,2013-04-28 12:10:00,
2013-04-28 07:15:00,52.3,51.5,29.99,NNW,342,0.0,1.0,97,0.00,,---,0.00,VWS V14.01,2013-04-28 12:15:00,
2013-04-28 07:20:00,52.6,51.8,30.00,NNW,341,0.0,1.0,97,0.00,,---,0.00,VWS V14.01,2013-04-28 12:20:00,
2013-04-28 07:25:00,52.8,52.0,30.00,NNW,341,0.0,1.0,97,0.00,,---,0.00,VWS V14.01,2013-04-28 12:25:00,
2013-04-28 07:30:00,53.0,52.2,30.00,NNE,16,0.0,1.0,97,0.00,,---,0.00,VWS V14.01,2013-04-28 12:30:00,
2013-04-28 07:35:00,53.7,52.9,30.00,ENE,72,0.0,1.0,97,0.00,,---,0.00,VWS V14.01,2013-04-28 12:35:00,
2013-04-28 07:40:00,53.9,53.1,30.00,ENE,77,0.0,1.0,97,0.00,,---,0.00,VWS V14.01,2013-04-28 12:40:00,
2013-04-28 07:45:00,54.3,53.5,30.00,North,349,1.0,1.0,97,0.00,,---,0.00,VWS V14.01,2013-04-28 12:45:00,
2013-04-28 07:50:00,54.6,53.8,30.00,NNW,341,0.0,1.0,97,0.00,,---,0.00,VWS V14.01,2013-04-28 12:50:00,
2013-04-28 07:55:00,54.9,54.1,30.00,NE,51,0.0,2.0,97,0.00,,---,0.00,VWS V14.01,2013-04-28 12:55:00,
2013-04-28 08:00:00,55.2,54.4,30.00,ENE,61,0.0,2.0,97,0.00,,---,0.00,VWS V14.01,2013-04-28 13:00:00,
2013-04-28 08:05:00,55.4,54.6,30.00,NE,37,0.0,2.0,97,0.00,,---,0.00,VWS V14.01,2013-04-28 13:05:00,
2013-04-28 08:10:00,55.6,54.8,30.00,NE,34,2.0,2.0,97,0.00,,---,0.00,VWS V14.01,2013-04-28 13:10:00,
2013-04-28 08:15:00,55.6,54.5,30.00,North,4,1.0,3.0,96,0.00,,---,0.00,VWS V14.01,2013-04-28 13:15:00,
2013-04-28 08:20:00,55.7,54.6,30.00,East,86,0.0,3.0,96,0.00,,---,0.00,VWS V14.01,2013-04-28 13:20:00,
2013-04-28 08:25:00,55.9,54.8,30.00,NE,34,0.0,3.0,96,0.00,,---,0.00,VWS V14.01,2013-04-28 13:25:00,
2013-04-28 08:30:00,56.1,55.0,30.01,East,94,0.0,3.0,96,0.00,,---,0.00,VWS V14.01,2013-04-28 13:30:00,
2013-04-28 08:35:00,56.2,55.1,30.01,ENE,73,0.0,1.0,96,0.00,,---,0.00,VWS V14.01,2013-04-28 13:35:00,
2013-04-28 08:40:00,56.3,55.2,30.01,East,90,1.0,1.0,96,0.00,,---,0.00,VWS V14.01,2013-04-28 13:40:00,
2013-04-28 08:45:00,56.7,55.6,30.01,East,87,0.0,1.0,96,0.00,,---,0.00,VWS V14.01,2013-04-28 13:45:00,
2013-04-28 08:50:00,56.8,55.4,30.01,ENE,76,2.0,2.0,95,0.00,,---,0.00,VWS V14.01,2013-04-28 13:50:00,
2013-04-28 08:55:00,57.2,55.8,30.01,East,82,0.0,2.0,95,0.00,,---,0.00,VWS V14.01,2013-04-28 13:55:00,
2013-04-28 09:00:00,57.7,56.0,30.01,ESE,103,0.0,2.0,94,0.00,,---,0.00,VWS V14.01,2013-04-28 14:00:00,
2013-04-28 09:05:00,58.7,57.0,30.01,East,84,1.0,3.0,94,0.00,,---,0.00,VWS V14.01,2013-04-28 14:05:00,
2013-04-28 09:10:00,59.7,56.8,30.01,ENE,68,0.0,3.0,90,0.00,,---,0.00,VWS V14.01,2013-04-28 14:10:00,
2013-04-28 09:15:00,60.5,56.6,30.01,East,91,0.0,3.0,87,0.00,,---,0.00,VWS V14.01,2013-04-28 14:15:00,
2013-04-28 09:20:00,61.3,56.8,30.01,East,85,0.0,3.0,85,0.00,,---,0.00,VWS V14.01,2013-04-28 14:20:00,
2013-04-28 09:25:00,61.9,56.7,30.01,East,88,2.0,3.0,83,0.00,,---,0.00,VWS V14.01,2013-04-28 14:25:00,
2013-04-28 09:30:00,62.0,56.5,30.00,East,79,0.0,3.0,82,0.00,,---,0.00,VWS V14.01,2013-04-28 14:30:00,
2013-04-28 09:35:00,62.5,56.9,30.00,East,85,0.0,1.0,82,0.00,,---,0.00,VWS V14.01,2013-04-28 14:35:00,
2013-04-28 09:40:00,62.6,56.3,30.01,NW,312,0.0,1.0,80,0.00,,---,0.00,VWS V14.01,2013-04-28 14:40:00,
2013-04-28 09:45:00,62.5,56.2,30.01,NW,313,0.0,1.0,80,0.00,,---,0.00,VWS V14.01,2013-04-28 14:45:00,
2013-04-28 09:50:00,62.5,56.6,30.01,NNW,346,0.0,1.0,81,0.00,,---,0.00,VWS V14.01,2013-04-28 14:50:00,
2013-04-28 09:55:00,62.8,56.5,30.01,ESE,118,0.0,1.0,80,0.00,,---,0.00,VWS V14.01,2013-04-28 14:55:00,
2013-04-28 10:00:00,63.0,57.1,30.01,ENE,73,0.0,1.0,81,0.00,,---,0.00,VWS V14.01,2013-04-28 15:00:00,
2013-04-28 10:05:00,63.4,56.8,30.01,East,98,0.0,2.0,79,0.00,,---,0.00,VWS V14.01,2013-04-28 15:05:00,
2013-04-28 10:10:00,63.4,56.8,30.01,East,101,0.0,2.0,79,0.00,,---,0.00,VWS V14.01,2013-04-28 15:10:00,
2013-04-28 10:15:00,63.4,56.4,30.01,ESE,121,1.0,2.0,78,0.00,,---,0.00,VWS V14.01,2013-04-28 15:15:00,
2013-04-28 10:20:00,63.3,57.0,30.01,SSW,204,0.0,3.0,80,0.00,,---,0.00,VWS V14.01,2013-04-28 15:20:00,
2013-04-28 10:25:00,63.5,56.9,30.01,ESE,107,0.0,3.0,79,0.00,,---,0.00,VWS V14.01,2013-04-28 15:25:00,
2013-04-28 10:30:00,63.8,56.8,30.00,SSE,163,3.0,3.0,78,0.00,,---,0.00,VWS V14.01,2013-04-28 15:30:00,
2013-04-28 10:35:00,63.8,57.2,30.00,ESE,109,0.0,3.0,79,0.00,,---,0.00,VWS V14.01,2013-04-28 15:35:00,
2013-04-28 10:40:00,64.2,57.2,30.00,ESE,105,0.0,3.0,78,0.00,,---,0.00,VWS V14.01,2013-04-28 15:40:00,
2013-04-28 10:45:00,64.3,57.0,30.00,SSE,153,2.0,4.0,77,0.00,,---,0.00,VWS V14.01,2013-04-28 15:45:00,
2013-04-28 10:50:00,64.4,57.4,30.00,South,183,3.0,4.0,78,0.00,,---,0.00,VWS V14.01,2013-04-28 15:50:00,
2013-04-28 10:55:00,64.3,57.0,30.00,SE,132,0.0,5.0,77,0.00,,---,0.00,VWS V14.01,2013-04-28 15:55:00,
2013-04-28 11:00:00,64.5,57.5,30.00,SSE,166,2.0,5.0,78,0.00,,---,0.00,VWS V14.01,2013-04-28 16:00:00,
2013-04-28 11:05:00,64.9,58.2,30.00,SSE,159,1.0,4.0,79,0.00,,---,0.00,VWS V14.01,2013-04-28 16:05:00,
2013-04-28 11:10:00,65.1,57.7,30.00,ESE,110,3.0,4.0,77,0.00,,---,0.00,VWS V14.01,2013-04-28 16:10:00,
2013-04-28 11:15:00,64.9,57.5,30.00,SE,138,0.0,4.0,77,0.00,,---,0.00,VWS V14.01,2013-04-28 16:15:00,
2013-04-28 11:20:00,65.2,57.8,30.00,ESE,117,1.0,4.0,77,0.00,,---,0.00,VWS V14.01,2013-04-28 16:20:00,
2013-04-28 11:25:00,65.4,58.0,30.00,ESE,117,1.0,4.0,77,0.00,,---,0.00,VWS V14.01,2013-04-28 16:25:00,
2013-04-28 11:30:00,65.8,58.8,30.00,SSE,148,1.0,4.0,78,0.00,,---,0.00,VWS V14.01,2013-04-28 16:30:00,
2013-04-28 11:35:00,66.4,59.0,30.00,South,169,1.0,3.0,77,0.00,,---,0.00,VWS V14.01,2013-04-28 16:35:00,
2013-04-28 11:40:00,66.9,59.1,30.00,SSE,151,1.0,3.0,76,0.00,,---,0.00,VWS V14.01,2013-04-28 16:40:00,
2013-04-28 11:45:00,67.5,58.9,30.00,South,173,2.0,3.0,74,0.00,,---,0.00,VWS V14.01,2013-04-28 16:45:00,
2013-04-28 11:50:00,67.7,58.7,30.00,SSW,212,0.0,3.0,73,0.00,,---,0.00,VWS V14.01,2013-04-28 16:50:00,
2013-04-28 11:55:00,68.0,58.3,30.00,SSE,165,2.0,4.0,71,0.00,,---,0.00,VWS V14.01,2013-04-28 16:55:00,
2013-04-28 12:00:00,68.2,58.8,30.00,ESE,114,2.0,4.0,72,0.00,,---,0.00,VWS V14.01,2013-04-28 17:00:00,
2013-04-28 12:05:00,68.3,58.5,29.99,ESE,120,3.0,4.0,71,0.00,,---,0.00,VWS V14.01,2013-04-28 17:05:00,
2013-04-28 12:10:00,67.7,58.7,29.99,ESE,110,0.0,4.0,73,0.00,,---,0.00,VWS V14.01,2013-04-28 17:10:00,
2013-04-28 12:15:00,67.8,58.8,29.99,ESE,108,3.0,4.0,73,0.00,,---,0.00,VWS V14.01,2013-04-28 17:15:00,
2013-04-28 12:20:00,67.9,59.3,29.99,ESE,117,4.0,4.0,74,0.00,,---,0.00,VWS V14.01,2013-04-28 17:20:00,
2013-04-28 12:25:00,68.1,59.5,29.99,SE,131,3.0,4.0,74,0.00,,---,0.00,VWS V14.01,2013-04-28 17:25:00,
2013-04-28 12:30:00,68.3,60.5,29.98,East,86,2.0,5.0,76,0.00,,---,0.00,VWS V14.01,2013-04-28 17:30:00,
2013-04-28 12:35:00,68.8,60.2,29.98,SE,125,1.0,4.0,74,0.00,,---,0.00,VWS V14.01,2013-04-28 17:35:00,
2013-04-28 12:40:00,69.7,61.4,29.98,ESE,115,3.0,5.0,75,0.00,,---,0.00,VWS V14.01,2013-04-28 17:40:00,
2013-04-28 12:45:00,70.0,60.6,29.97,ESE,117,3.0,7.0,72,0.00,,---,0.00,VWS V14.01,2013-04-28 17:45:00,
2013-04-28 12:50:00,69.8,60.4,29.97,ESE,116,4.0,7.0,72,0.00,,---,0.00,VWS V14.01,2013-04-28 17:50:00,
2013-04-28 12:55:00,70.1,60.3,29.97,East,96,3.0,7.0,71,0.00,,---,0.00,VWS V14.01,2013-04-28 17:55:00,
2013-04-28 13:00:00,70.2,61.2,29.97,East,90,1.0,7.0,73,0.00,,---,0.00,VWS V14.01,2013-04-28 18:00:00,
2013-04-28 13:05:00,70.4,60.6,29.96,East,98,4.0,6.0,71,0.00,,---,0.00,VWS V14.01,2013-04-28 18:05:00,
2013-04-28 13:10:00,70.7,61.2,29.96,ESE,117,3.0,6.0,72,0.00,,---,0.00,VWS V14.01,2013-04-28 18:10:00,
2013-04-28 13:15:00,70.8,61.3,29.96,ESE,112,3.0,6.0,72,0.00,,---,0.00,VWS V14.01,2013-04-28 18:15:00,
2013-04-28 13:20:00,70.9,61.0,29.96,SE,124,4.0,6.0,71,0.00,,---,0.00,VWS V14.01,2013-04-28 18:20:00,
2013-04-28 13:25:00,71.0,61.9,29.96,East,94,4.0,6.0,73,0.00,,---,0.00,VWS V14.01,2013-04-28 18:25:00,
2013-04-28 13:30:00,71.2,62.1,29.95,SE,127,2.0,6.0,73,0.00,,---,0.00,VWS V14.01,2013-04-28 18:30:00,
2013-04-28 13:35:00,71.2,62.1,29.95,South,172,3.0,5.0,73,0.00,,---,0.00,VWS V14.01,2013-04-28 18:35:00,
2013-04-28 13:40:00,71.4,61.5,29.95,ESE,117,4.0,5.0,71,0.00,,---,0.00,VWS V14.01,2013-04-28 18:40:00,
2013-04-28 13:45:00,71.5,62.4,29.95,ESE,111,3.0,5.0,73,0.00,,---,0.00,VWS V14.01,2013-04-28 18:45:00,
2013-04-28 13:50:00,71.8,62.7,29.94,ESE,105,4.0,5.0,73,0.00,,---,0.00,VWS V14.01,2013-04-28 18:50:00,
2013-04-28 13:55:00,72.7,63.5,29.94,SE,146,2.0,5.0,73,0.00,,---,0.00,VWS V14.01,2013-04-28 18:55:00,
2013-04-28 14:00:00,73.5,63.5,29.94,ESE,113,4.0,5.0,71,0.00,,---,0.00,VWS V14.01,2013-04-28 19:00:00,
2013-04-28 14:05:00,73.3,63.7,29.94,ESE,118,4.0,5.0,72,0.00,,---,0.00,VWS V14.01,2013-04-28 19:05:00,
2013-04-28 14:10:00,72.9,63.0,29.94,East,97,3.0,6.0,71,0.00,,---,0.00,VWS V14.01,2013-04-28 19:10:00,
2013-04-28 14:15:00,73.5,63.9,29.94,ESE,105,3.0,6.0,72,0.00,,---,0.00,VWS V14.01,2013-04-28 19:15:00,
2013-04-28 14:20:00,74.1,63.7,29.94,ENE,77,3.0,6.0,70,0.00,,---,0.00,VWS V14.01,2013-04-28 19:20:00,
2013-04-28 14:25:00,74.1,64.1,29.93,SE,138,3.0,6.0,71,0.00,,---,0.00,VWS V14.01,2013-04-28 19:25:00,
2013-04-28 14:30:00,74.6,63.3,29.93,SE,138,3.0,6.0,68,0.00,,---,0.00,VWS V14.01,2013-04-28 19:30:00,
2013-04-28 14:35:00,74.9,64.1,29.93,SE,141,3.0,3.0,69,0.00,,---,0.00,VWS V14.01,2013-04-28 19:35:00,
2013-04-28 14:40:00,75.2,64.3,29.93,East,91,0.0,5.0,69,0.00,,---,0.00,VWS V14.01,2013-04-28 19:40:00,
2013-04-28 14:45:00,75.3,63.6,29.93,East,91,5.0,5.0,67,0.00,,---,0.00,VWS V14.01,2013-04-28 19:45:00,
2013-04-28 14:50:00,75.1,63.8,29.92,East,94,2.0,5.0,68,0.00,,---,0.00,VWS V14.01,2013-04-28 19:50:00,
2013-04-28 14:55:00,76.0,65.1,29.92,East,87,3.0,5.0,69,0.00,,---,0.00,VWS V14.01,2013-04-28 19:55:00,
2013-04-28 15:00:00,76.9,65.1,29.92,ESE,107,3.0,5.0,67,0.00,,---,0.00,VWS V14.01,2013-04-28 20:00:00,
2013-04-28 15:05:00,77.4,65.2,29.92,ESE,111,3.0,3.0,66,0.00,,---,0.00,VWS V14.01,2013-04-28 20:05:00,
2013-04-28 15:10:00,76.8,65.0,29.91,East,87,4.0,4.0,67,0.00,,---,0.00,VWS V14.01,2013-04-28 20:10:00,
2013-04-28 15:15:00,76.2,64.0,29.91,East,96,3.0,5.0,66,0.00,,---,0.00,VWS V14.01,2013-04-28 20:15:00,
2013-04-28 15:20:00,76.3,64.6,29.91,East,98,3.0,5.0,67,0.00,,---,0.00,VWS V14.01,2013-04-28 20:20:00,
2013-04-28 15:25:00,76.3,65.0,29.91,ESE,114,0.0,5.0,68,0.00,,---,0.00,VWS V14.01,2013-04-28 20:25:00,
2013-04-28 15:30:00,77.4,65.2,29.91,East,86,3.0,5.0,66,0.00,,---,0.00,VWS V14.01,2013-04-28 20:30:00,
2013-04-28 15:35:00,77.0,65.6,29.90,SSE,155,0.0,4.0,68,0.00,,---,0.00,VWS V14.01,2013-04-28 20:35:00,
2013-04-28 15:40:00,77.7,65.9,29.90,NE,47,0.0,4.0,67,0.00,,---,0.00,VWS V14.01,2013-04-28 20:40:00,
2013-04-28 15:45:00,79.4,66.6,29.90,East,99,1.0,4.0,65,0.00,,---,0.00,VWS V14.01,2013-04-28 20:45:00,
2013-04-28 15:50:00,80.9,67.1,29.90,ESE,104,3.0,4.0,63,0.00,,---,0.00,VWS V14.01,2013-04-28 20:50:00,
2013-04-28 15:55:00,79.3,64.7,29.89,ESE,107,3.0,5.0,61,0.00,,---,0.00,VWS V14.01,2013-04-28 20:55:00,
2013-04-28 16:00:00,79.4,66.2,29.89,SE,124,0.0,5.0,64,0.00,,---,0.00,VWS V14.01,2013-04-28 21:00:00,
2013-04-28 16:05:00,81.0,66.8,29.89,East,97,0.0,2.0,62,0.00,,---,0.00,VWS V14.01,2013-04-28 21:05:00,
2013-04-28 16:10:00,80.8,66.1,29.89,ESE,117,0.0,4.0,61,0.00,,---,0.00,VWS V14.01,2013-04-28 21:10:00,
2013-04-28 16:15:00,80.7,66.9,29.88,ESE,110,2.0,4.0,63,0.00,,---,0.00,VWS V14.01,2013-04-28 21:15:00,
2013-04-28 16:20:00,79.7,65.5,29.88,East,97,2.0,5.0,62,0.00,,---,0.00,VWS V14.01,2013-04-28 21:20:00,
2013-04-28 16:25:00,78.5,65.8,29.88,ESE,104,4.0,6.0,65,0.00,,---,0.00,VWS V14.01,2013-04-28 21:25:00,
2013-04-28 16:30:00,77.9,65.6,29.88,East,94,4.0,6.0,66,0.00,,---,0.00,VWS V14.01,2013-04-28 21:30:00,
2013-04-28 16:35:00,78.0,65.7,29.88,ESE,106,5.0,5.0,66,0.00,,---,0.00,VWS V14.01,2013-04-28 21:35:00,
2013-04-28 16:40:00,77.7,65.9,29.87,East,98,5.0,6.0,67,0.00,,---,0.00,VWS V14.01,2013-04-28 21:40:00,
2013-04-28 16:45:00,77.1,65.3,29.87,ESE,105,4.0,6.0,67,0.00,,---,0.00,VWS V14.01,2013-04-28 21:45:00,
2013-04-28 16:50:00,76.9,65.5,29.87,ESE,106,4.0,6.0,68,0.00,,---,0.00,VWS V14.01,2013-04-28 21:50:00,
2013-04-28 16:55:00,76.7,65.3,29.87,ESE,104,3.0,6.0,68,0.00,,---,0.00,VWS V14.01,2013-04-28 21:55:00,
2013-04-28 17:00:00,76.7,65.3,29.87,NE,42,1.0,6.0,68,0.00,,---,0.00,VWS V14.01,2013-04-28 22:00:00,
2013-04-28 17:05:00,77.3,65.5,29.87,ESE,108,4.0,5.0,67,0.00,,---,0.00,VWS V14.01,2013-04-28 22:05:00,
2013-04-28 17:10:00,77.2,66.2,29.87,East,79,3.0,5.0,69,0.00,,---,0.00,VWS V14.01,2013-04-28 22:10:00,
2013-04-28 17:15:00,77.2,65.4,29.87,East,87,2.0,5.0,67,0.00,,---,0.00,VWS V14.01,2013-04-28 22:15:00,
2013-04-28 17:20:00,77.5,65.3,29.87,ESE,110,2.0,5.0,66,0.00,,---,0.00,VWS V14.01,2013-04-28 22:20:00,
2013-04-28 17:25:00,77.8,65.5,29.86,East,87,0.0,5.0,66,0.00,,---,0.00,VWS V14.01,2013-04-28 22:25:00,
2013-04-28 17:30:00,78.9,66.2,29.87,ESE,112,0.0,5.0,65,0.00,,---,0.00,VWS V14.01,2013-04-28 22:30:00,
2013-04-28 17:35:00,79.9,65.7,29.86,ESE,117,0.0,1.0,62,0.00,,---,0.00,VWS V14.01,2013-04-28 22:35:00,
2013-04-28 17:40:00,80.4,65.3,29.87,ESE,108,0.0,1.0,60,0.00,,---,0.00,VWS V14.01,2013-04-28 22:40:00,
2013-04-28 17:45:00,80.8,65.6,29.87,ESE,114,0.0,1.0,60,0.00,,---,0.00,VWS V14.01,2013-04-28 22:45:00,
2013-04-28 17:50:00,80.9,65.2,29.87,ESE,114,1.0,1.0,59,0.00,,---,0.00,VWS V14.01,2013-04-28 22:50:00,
2013-04-28 17:55:00,80.7,65.5,29.86,SW,219,1.0,2.0,60,0.00,,---,0.00,VWS V14.01,2013-04-28 22:55:00,
2013-04-28 18:00:00,80.7,65.5,29.86,East,98,0.0,2.0,60,0.00,,---,0.00,VWS V14.01,2013-04-28 23:00:00,
2013-04-28 18:05:00,80.9,65.7,29.86,ESE,108,0.0,0.0,60,0.00,,---,0.00,VWS V14.01,2013-04-28 23:05:00,
2013-04-28 18:10:00,81.1,65.4,29.86,ESE,118,0.0,0.0,59,0.00,,---,0.00,VWS V14.01,2013-04-28 23:10:00,
2013-04-28 18:15:00,81.2,65.5,29.86,ESE,118,0.0,0.0,59,0.00,,---,0.00,VWS V14.01,2013-04-28 23:15:00,
2013-04-28 18:20:00,81.3,65.6,29.86,ESE,112,0.0,0.0,59,0.00,,---,0.00,VWS V14.01,2013-04-28 23:20:00,
2013-04-28 18:25:00,81.3,65.6,29.86,ESE,112,0.0,0.0,59,0.00,,---,0.00,VWS V14.01,2013-04-28 23:25:00,
2013-04-28 18:30:00,80.7,65.5,29.86,ESE,111,0.0,0.0,60,0.00,,---,0.00,VWS V14.01,2013-04-28 23:30:00,
2013-04-28 18:35:00,80.1,65.0,29.86,ESE,112,0.0,0.0,60,0.00,,---,0.00,VWS V14.01,2013-04-28 23:35:00,
2013-04-28 18:39:00,79.9,65.3,29.86,ESE,112,0.0,0.0,61,0.00,,---,0.00,VWS V14.01,2013-04-28 23:39:00,
2013-04-28 18:44:00,79.5,65.3,29.86,ESE,111,0.0,0.0,62,0.00,,---,0.00,VWS V14.01,2013-04-28 23:44:00,
2013-04-28 18:50:00,79.1,65.4,29.86,ESE,111,0.0,0.0,63,0.00,,---,0.00,VWS V14.01,2013-04-28 23:50:00,
2013-04-28 18:55:00,78.9,65.2,29.86,ESE,111,0.0,0.0,63,0.00,,---,0.00,VWS V14.01,2013-04-28 23:55:00,
2013-04-28 19:00:00,78.7,65.5,29.85,ESE,112,0.0,0.0,64,0.00,,---,0.00,VWS V14.01,2013-04-29 00:00:00,
2013-04-28 19:05:00,78.3,65.1,29.85,ESE,112,0.0,0.0,64,0.00,,---,0.00,VWS V14.01,2013-04-29 00:05:00,
2013-04-28 19:10:00,78.0,64.8,29.85,ESE,111,0.0,0.0,64,0.00,,---,0.00,VWS V14.01,2013-04-29 00:10:00,
2013-04-28 19:15:00,77.7,64.6,29.85,ESE,111,0.0,0.0,64,0.00,,---,0.00,VWS V14.01,2013-04-29 00:15:00,
2013-04-28 19:20:00,77.5,64.8,29.85,ESE,112,0.0,0.0,65,0.00,,---,0.00,VWS V14.01,2013-04-29 00:20:00,
2013-04-28 19:25:00,77.2,65.0,29.86,ESE,112,0.0,0.0,66,0.00,,---,0.00,VWS V14.01,2013-04-29 00:25:00,
2013-04-28 19:30:00,76.7,64.9,29.85,ESE,112,0.0,0.0,67,0.00,,---,0.00,VWS V14.01,2013-04-29 00:30:00,
2013-04-28 19:35:00,76.1,64.8,29.85,ESE,112,0.0,0.0,68,0.00,,---,0.00,VWS V14.01,2013-04-29 00:35:00,
2013-04-28 19:40:00,75.6,64.3,29.85,ESE,111,0.0,0.0,68,0.00,,---,0.00,VWS V14.01,2013-04-29 00:40:00,
2013-04-28 19:45:00,75.2,64.8,29.85,ESE,112,0.0,0.0,70,0.00,,---,0.00,VWS V14.01,2013-04-29 00:45:00,
2013-04-28 19:50:00,74.8,64.8,29.85,ESE,111,0.0,0.0,71,0.00,,---,0.00,VWS V14.01,2013-04-29 00:50:00,
2013-04-28 19:55:00,74.2,64.6,29.85,ESE,111,0.0,0.0,72,0.00,,---,0.00,VWS V14.01,2013-04-29 00:55:00,
2013-04-28 20:00:00,73.8,64.6,29.85,ESE,112,0.0,0.0,73,0.00,,---,0.00,VWS V14.01,2013-04-29 01:00:00,
2013-04-28 20:05:00,73.3,64.5,29.85,ESE,112,0.0,0.0,74,0.00,,---,0.00,VWS V14.01,2013-04-29 01:05:00,
2013-04-28 20:10:00,72.9,64.5,29.85,ESE,111,0.0,0.0,75,0.00,,---,0.00,VWS V14.01,2013-04-29 01:10:00,
2013-04-28 20:15:00,72.4,64.8,29.85,ESE,111,0.0,0.0,77,0.00,,---,0.00,VWS V14.01,2013-04-29 01:15:00,
2013-04-28 20:20:00,72.2,65.3,29.86,ESE,111,0.0,0.0,79,0.00,,---,0.00,VWS V14.01,2013-04-29 01:20:00,
2013-04-28 20:25:00,72.0,65.1,29.86,ESE,111,0.0,0.0,79,0.00,,---,0.00,VWS V14.01,2013-04-29 01:25:00,
2013-04-28 20:30:00,71.8,64.9,29.86,ESE,111,0.0,0.0,79,0.00,,---,0.00,VWS V14.01,2013-04-29 01:30:00,
2013-04-28 20:35:00,71.5,65.0,29.86,ESE,111,0.0,0.0,80,0.00,,---,0.00,VWS V14.01,2013-04-29 01:35:00,
2013-04-28 20:40:00,71.1,65.0,29.86,ESE,111,0.0,0.0,81,0.00,,---,0.00,VWS V14.01,2013-04-29 01:40:00,
2013-04-28 20:45:00,70.8,65.4,29.86,ESE,111,0.0,0.0,83,0.00,,---,0.00,VWS V14.01,2013-04-29 01:45:00,
2013-04-28 20:50:00,70.7,65.3,29.86,ESE,111,0.0,0.0,83,0.00,,---,0.00,VWS V14.01,2013-04-29 01:50:00,
2013-04-28 20:55:00,70.7,65.3,29.86,ESE,111,0.0,0.0,83,0.00,,---,0.00,VWS V14.01,2013-04-29 01:55:00,
2013-04-28 21:00:00,70.8,65.7,29.86,ESE,111,0.0,0.0,84,0.00,,---,0.00,VWS V14.01,2013-04-29 02:00:00,
2013-04-28 21:05:00,70.7,65.6,29.86,ESE,111,0.0,0.0,84,0.00,,---,0.00,VWS V14.01,2013-04-29 02:05:00,
2013-04-28 21:10:00,70.4,65.7,29.86,ESE,111,0.0,0.0,85,0.00,,---,0.00,VWS V14.01,2013-04-29 02:10:00,
2013-04-28 21:15:00,69.9,65.2,29.87,ESE,111,0.0,0.0,85,0.00,,---,0.00,VWS V14.01,2013-04-29 02:15:00,
2013-04-28 21:20:00,69.5,65.1,29.87,ESE,111,0.0,0.0,86,0.00,,---,0.00,VWS V14.01,2013-04-29 02:20:00,
2013-04-28 21:25:00,69.2,64.8,29.87,ESE,111,0.0,0.0,86,0.00,,---,0.00,VWS V14.01,2013-04-29 02:25:00,
2013-04-28 21:30:00,69.0,65.0,29.87,ESE,111,0.0,0.0,87,0.00,,---,0.00,VWS V14.01,2013-04-29 02:30:00,
2013-04-28 21:35:00,68.9,64.9,29.87,ESE,111,0.0,0.0,87,0.00,,---,0.00,VWS V14.01,2013-04-29 02:35:00,
2013-04-28 21:40:00,68.8,64.8,29.88,ESE,111,0.0,0.0,87,0.00,,---,0.00,VWS V14.01,2013-04-29 02:40:00,
2013-04-28 21:45:00,68.7,64.7,29.88,ESE,111,0.0,0.0,87,0.00,,---,0.00,VWS V14.01,2013-04-29 02:45:00,
2013-04-28 21:50:00,68.5,64.5,29.88,ESE,111,0.0,0.0,87,0.00,,---,0.00,VWS V14.01,2013-04-29 02:50:00,
2013-04-28 21:55:00,68.2,64.2,29.88,ESE,111,0.0,0.0,87,0.00,,---,0.00,VWS V14.01,2013-04-29 02:55:00,
2013-04-28 22:00:00,68.0,64.3,29.88,ESE,111,0.0,0.0,88,0.00,,---,0.00,VWS V14.01,2013-04-29 03:00:00,
2013-04-28 22:05:00,67.9,64.5,29.88,ESE,111,0.0,0.0,89,0.00,,---,0.00,VWS V14.01,2013-04-29 03:05:00,
2013-04-28 22:10:00,67.7,64.3,29.88,ESE,111,0.0,0.0,89,0.00,,---,0.00,VWS V14.01,2013-04-29 03:10:00,
2013-04-28 22:15:00,67.5,64.2,29.88,ESE,111,0.0,0.0,89,0.00,,---,0.00,VWS V14.01,2013-04-29 03:15:00,
2013-04-28 22:20:00,67.5,64.5,29.88,ESE,110,0.0,0.0,90,0.00,,---,0.00,VWS V14.01,2013-04-29 03:20:00,
2013-04-28 22:25:00,68.0,64.6,29.88,ESE,109,0.0,1.0,89,0.00,,---,0.00,VWS V14.01,2013-04-29 03:25:00,
2013-04-28 22:30:00,68.6,64.6,29.88,ESE,108,0.0,1.0,87,0.00,,---,0.00,VWS V14.01,2013-04-29 03:30:00,
2013-04-28 22:35:00,69.0,64.6,29.88,ESE,112,0.0,2.0,86,0.00,,---,0.00,VWS V14.01,2013-04-29 03:35:00,
2013-04-28 22:40:00,69.1,64.4,29.88,ESE,108,0.0,2.0,85,0.00,,---,0.00,VWS V14.01,2013-04-29 03:40:00,
2013-04-28 22:45:00,69.2,64.5,29.88,ESE,104,0.0,2.0,85,0.00,,---,0.00,VWS V14.01,2013-04-29 03:45:00,
2013-04-28 22:50:00,69.1,64.4,29.88,ESE,107,0.0,2.0,85,0.00,,---,0.00,VWS V14.01,2013-04-29 03:50:00,
2013-04-28 22:54:00,69.0,64.3,29.88,ESE,103,0.0,2.0,85,0.00,,---,0.00,VWS V14.01,2013-04-29 03:54:00,
2013-04-28 22:59:00,68.8,64.4,29.88,ESE,110,0.0,2.0,86,0.00,,---,0.00,VWS V14.01,2013-04-29 03:59:00,
2013-04-28 23:01:00,68.8,64.4,29.88,ESE,108,0.0,0.0,86,0.00,,---,0.00,VWS V14.01,2013-04-29 04:01:00,
2013-04-28 23:06:00,68.7,64.0,29.88,ESE,109,0.0,1.0,85,0.00,,---,0.00,VWS V14.01,2013-04-29 04:06:00,
2013-04-28 23:11:00,68.7,64.0,29.88,NE,55,0.0,2.0,85,0.00,,---,0.00,VWS V14.01,2013-04-29 04:11:00,
2013-04-28 23:16:00,68.7,64.0,29.88,ESE,105,0.0,2.0,85,0.00,,---,0.00,VWS V14.01,2013-04-29 04:16:00,
2013-04-28 23:21:00,68.7,64.0,29.88,East,87,0.0,2.0,85,0.00,,---,0.00,VWS V14.01,2013-04-29 04:21:00,
2013-04-28 23:26:00,68.7,64.0,29.88,East,88,1.0,3.0,85,0.00,,---,0.00,VWS V14.01,2013-04-29 04:26:00,
2013-04-28 23:31:00,68.6,63.9,29.88,ENE,76,1.0,2.0,85,0.00,,---,0.00,VWS V14.01,2013-04-29 04:31:00,
2013-04-28 23:36:00,68.5,63.8,29.88,East,83,1.0,2.0,85,0.00,,---,0.00,VWS V14.01,2013-04-29 04:36:00,
2013-04-28 23:41:00,68.4,63.7,29.88,East,89,0.0,4.0,85,0.00,,---,0.00,VWS V14.01,2013-04-29 04:41:00,
2013-04-28 23:46:00,68.3,63.6,29.88,East,86,1.0,4.0,85,0.00,,---,0.00,VWS V14.01,2013-04-29 04:46:00,
2013-04-28 23:51:00,68.2,63.5,29.88,NNE,20,0.0,4.0,85,0.00,,---,0.00,VWS V14.01,2013-04-29 04:51:00,
2013-04-28 23:56:00,68.1,63.4,29.88,East,99,3.0,4.0,85,0.00,,---,0.00,VWS V14.01,2013-04-29 04:56:00,